{"data":{"norad_id":54664,"epoch":"2026-09-20T04:37:08.300352Z","epoch_age_seconds":48818,"freshness":"FRESH","line1":"1 54664U 22166Y   26263.19245718 -.00000013  00000+0 -63054-4 0  9995","line2":"2 54664  87.9281 225.0672 0002219  76.3841 283.7540 13.21826666184068","mean_motion":13.21826666,"eccentricity":0.0002219,"inclination_deg":87.9281,"raan_deg":225.0672,"arg_perigee_deg":76.3841,"mean_anomaly_deg":283.754,"bstar":-6.3054e-5,"rev_number":18406,"period_min":108.94015357986,"perigee_km":1176.0741788435,"apogee_km":1179.4274818627,"semimajor_km":7555.8878303531,"source":"CELESTRAK","updated_at":"2026-09-20T09:00:44.745717Z"}}